Tallevast, FL

4:38 PM EDT on July 23, 2016 (GMT -0400)
Sarasota-bradenton

Weather History for KSRQ - January, 2005

Change the Weather History Date:

Tuesday, January 18, 2005

  Actual Average Record
Temperature  
Mean Temperature 52 °F 61 °F  
Max Temperature 62 °F 71 °F 84 °F (1990)
Min Temperature 41 °F 52 °F 29 °F (1977)
Degree Days  
Heating Degree Days 14 5  
Month to date heating degree days 99  
Since 1 July heating degree days 254  
Cooling Degree Days 0 2  
Month to date cooling degree days 36  
Year to date cooling degree days 36  
Growing Degree Days 2 (Base 50)    
Moisture  
Dew Point 34 °F    
Average Humidity 54    
Maximum Humidity 73    
Minimum Humidity 37    
Precipitation  
Precipitation 0.00 in 0.06 in 1.16 in (1930)
Month to date precipitation 1.75  
Year to date precipitation 1.75  
Sea Level Pressure  
Sea Level Pressure 30.44 in    
Wind  
Wind Speed 10 mph (NE)    
Max Wind Speed 17 mph    
Max Gust Speed 16 mph    
Visibility 10 miles    
Events      
T = Trace of Precipitation, MM = Missing Value Source: NWS Daily Summary

Daily Weather History Graph

Daily Weather History Graph

Search for Another Location

Airport or City:

Trip Planner

Search our weather history database for the weather conditions in past years. The results will help you decide how hot, cold, wet, or windy it might be!

Date:

Astronomy

Jan. 18, 2005 Rise Set
Actual Time 7:21 AM EST 6:00 PM EST
Civil Twilight 6:56 AM EST 6:25 PM EST
Nautical Twilight 6:27 AM EST 6:54 PM EST
Astronomical Twilight 5:59 AM EST 7:22 PM EST
Moon 12:49 PM EST (1/18) 1:40 AM EST (1/18)
Length of Visible Light 11h 29m
Length of Day
10h 39m
Waxing Gibbous, 64% of the Moon is Illuminated
Jan 18
Waxing Gibbous
Jan 25
Full
Feb 2
Last Quarter
Feb 8
New
Feb 15
First Quarter

Hourly Weather History & Observations

Time (EST) Temp. Windchill Dew Point Humidity Pressure Visibility Wind Dir Wind Speed Gust Speed Precip Events Conditions
12:53 AM 42.1 °F 36.1 °F 33.1 °F 70% 30.42 in 10.0 mi NNE 10.4 mph - N/A   Clear
1:53 AM 41.0 °F 35.8 °F 33.1 °F 73% 30.43 in 10.0 mi NNE 8.1 mph - N/A   Clear
2:53 AM 42.1 °F 35.2 °F 30.9 °F 65% 30.42 in 10.0 mi NNE 12.7 mph - N/A   Clear
3:53 AM 42.1 °F 36.6 °F 28.9 °F 60% 30.42 in 10.0 mi North 9.2 mph - N/A   Clear
4:53 AM 42.1 °F 37.1 °F 30.0 °F 62% 30.43 in 10.0 mi North 8.1 mph - N/A   Clear
5:53 AM 42.1 °F 35.7 °F 30.9 °F 65% 30.44 in 10.0 mi NNE 11.5 mph - N/A   Clear
7:53 AM 42.1 °F 36.1 °F 28.0 °F 58% 30.47 in 10.0 mi NNE 10.4 mph - N/A   Clear
8:53 AM 46.0 °F 39.0 °F 30.0 °F 54% 30.48 in 10.0 mi NNE 17.3 mph - N/A   Clear
9:53 AM 48.9 °F - 32.0 °F 52% 30.50 in 10.0 mi NNE 13.8 mph - N/A   Clear
10:53 AM 53.1 °F - 33.1 °F 47% 30.50 in 10.0 mi NE 9.2 mph - N/A   Clear
11:53 AM 57.9 °F - 35.1 °F 42% 30.48 in 10.0 mi ENE 11.5 mph - N/A   Clear
12:53 PM 60.1 °F - 36.0 °F 41% 30.44 in 10.0 mi NNE 10.4 mph - N/A   Clear
1:53 PM 62.1 °F - 37.0 °F 39% 30.42 in 10.0 mi NE 11.5 mph - N/A   Clear
2:53 PM 62.1 °F - 36.0 °F 38% 30.40 in 10.0 mi ENE 9.2 mph 16.1 mph N/A   Clear
3:53 PM 62.1 °F - 35.1 °F 37% 30.40 in 10.0 mi ENE 8.1 mph - N/A   Clear
4:53 PM 62.1 °F - 35.1 °F 37% 30.40 in 10.0 mi NE 9.2 mph - N/A   Clear
5:53 PM 57.9 °F - 36.0 °F 44% 30.41 in 10.0 mi NE 9.2 mph - N/A   Clear
6:53 PM 55.0 °F - 37.0 °F 51% 30.42 in 10.0 mi NNE 4.6 mph - N/A   Clear
7:53 PM 54.0 °F - 37.9 °F 55% 30.43 in 10.0 mi NNE 9.2 mph - N/A   Clear
8:53 PM 52.0 °F - 37.0 °F 57% 30.45 in 10.0 mi NE 12.7 mph - N/A   Clear
9:53 PM 50.0 °F - 37.9 °F 63% 30.45 in 10.0 mi NE 10.4 mph - N/A   Clear
10:53 PM 48.0 °F - 37.9 °F 68% 30.47 in 10.0 mi NE 10.4 mph - N/A   Clear
11:53 PM 46.9 °F - 37.0 °F 68% 30.45 in 10.0 mi NE 10.4 mph - N/A   Clear